User: anonymous   Login
Location: Sungai Laei
(2.6000°N, 113.7167°E)
Time: 10:08:28
(UTC+00:00)
Language:

SL-08 R/B - Orbit

View from above orbital plane
View from above orbital plane
View from above satellite
View from above satellite

Ground track
Ground track

The orbit data is extracted from the following two-line orbital elements,

1 27561U 02054C   22227.76180974  .00000261  00000-0  69427-4 0  9990
2 27561  98.5087  36.7305 0046970 123.9502 236.6173 14.56128638 46554
Epoch (UTC): 15 August 2022 18:17:00
Eccentricity: 0.0046970
inclination: 98.5087°
perigee height: 672 km
apogee height: 739 km
right ascension of ascending node: 36.7305°
argument of perigee: 123.9502°
revolutions per day: 14.56128638
mean anomaly at epoch: 236.6173°
orbit number at epoch: 4655

The dashed part of the orbit path shows where the satellite is in the earth's shadow,  

DLR